TimeCST,TemperatureF,Dew PointF,Humidity,Sea Level PressureIn,VisibilityMPH,Wind Direction,Wind SpeedMPH,Gust SpeedMPH,PrecipitationIn,Events,Conditions,WindDirDegrees,DateUTC
12:15 AM,65.8,55.4,69,30.12,7.0,SE,6.9,-,N/A,,Overcast,130,2012-12-31 06:15:00
12:35 AM,66.0,55.9,70,30.12,7.0,SE,6.9,-,N/A,,Overcast,140,2012-12-31 06:35:00
12:55 AM,65.8,56.3,71,30.11,7.0,SE,6.9,-,N/A,,Overcast,140,2012-12-31 06:55:00
1:15 AM,65.8,56.5,72,30.09,7.0,SE,6.9,-,N/A,,Overcast,130,2012-12-31 07:15:00
1:35 AM,66.2,57.4,73,30.09,7.0,SE,6.9,-,N/A,,Overcast,140,2012-12-31 07:35:00
1:55 AM,67.3,58.3,73,30.09,7.0,SSE,5.8,-,N/A,,Overcast,150,2012-12-31 07:55:00
2:15 AM,68.0,59.0,73,30.09,7.0,SSE,4.6,-,N/A,,Overcast,150,2012-12-31 08:15:00
2:35 AM,68.2,59.2,73,30.09,7.0,SSE,4.6,-,N/A,,Overcast,150,2012-12-31 08:35:00
2:55 AM,68.0,59.9,75,30.08,7.0,SSE,6.9,-,N/A,,Overcast,150,2012-12-31 08:55:00
3:15 AM,68.4,60.1,75,30.07,7.0,SSE,8.1,-,N/A,,Overcast,150,2012-12-31 09:15:00
3:35 AM,68.5,60.8,76,30.07,7.0,SSE,6.9,-,N/A,,Overcast,160,2012-12-31 09:35:00
3:55 AM,68.5,61.0,77,30.06,7.0,South,6.9,-,N/A,,Overcast,170,2012-12-31 09:55:00
4:15 AM,68.4,61.2,78,30.06,5.0,South,6.9,-,N/A,,Haze,170,2012-12-31 10:15:00
4:35 AM,68.2,61.3,79,30.05,7.0,SSE,8.1,-,N/A,,Overcast,160,2012-12-31 10:35:00
4:55 AM,68.0,61.7,80,30.05,7.0,South,8.1,-,N/A,,Overcast,170,2012-12-31 10:55:00
5:15 AM,68.0,61.7,80,30.05,7.0,SSE,6.9,-,N/A,,Overcast,160,2012-12-31 11:15:00
5:35 AM,68.0,61.0,78,30.04,7.0,SSE,10.4,-,N/A,,Overcast,150,2012-12-31 11:35:00
5:55 AM,68.0,60.8,78,30.04,7.0,SSE,5.8,-,N/A,,Overcast,160,2012-12-31 11:55:00
6:15 AM,68.0,60.6,77,30.03,7.0,SSE,8.1,-,N/A,,Overcast,150,2012-12-31 12:15:00
6:35 AM,68.0,60.3,76,30.03,7.0,SSE,8.1,-,N/A,,Overcast,160,2012-12-31 12:35:00
6:55 AM,68.0,60.1,76,30.03,10.0,SSE,6.9,-,N/A,,Overcast,160,2012-12-31 12:55:00
7:35 AM,67.6,60.1,77,30.02,7.0,SE,6.9,-,N/A,,Mostly Cloudy,140,2012-12-31 13:35:00
8:15 AM,68.2,60.8,77,30.03,5.0,SSE,6.9,-,N/A,,Haze,150,2012-12-31 14:15:00
8:35 AM,69.3,61.2,75,30.03,7.0,SSE,9.2,-,N/A,,Clear,150,2012-12-31 14:35:00
8:55 AM,69.8,61.7,75,30.04,5.0,SSE,9.2,-,N/A,,Haze,150,2012-12-31 14:55:00
9:15 AM,70.2,61.7,74,30.04,7.0,SSE,9.2,-,N/A,,Clear,160,2012-12-31 15:15:00
9:35 AM,70.7,61.7,73,30.04,7.0,SSE,8.1,-,N/A,,Clear,160,2012-12-31 15:35:00
9:55 AM,71.6,61.9,71,30.04,7.0,South,13.8,-,N/A,,Clear,170,2012-12-31 15:55:00
10:15 AM,72.5,61.7,69,30.04,7.0,South,10.4,-,N/A,,Clear,170,2012-12-31 16:15:00
10:35 AM,73.4,61.7,67,30.04,7.0,South,13.8,18.4,N/A,,Clear,170,2012-12-31 16:35:00
10:55 AM,74.8,61.5,63,30.03,7.0,South,12.7,19.6,N/A,,Scattered Clouds,180,2012-12-31 16:55:00
11:15 AM,75.7,60.6,59,30.02,7.0,South,17.3,24.2,N/A,,Mostly Cloudy,180,2012-12-31 17:15:00
11:35 AM,76.3,60.1,57,30.01,7.0,South,18.4,25.3,N/A,,Overcast,190,2012-12-31 17:35:00
11:55 AM,77.2,60.6,56,30.00,7.0,South,13.8,20.7,N/A,,Overcast,170,2012-12-31 17:55:00
12:15 PM,78.3,60.8,55,29.98,5.0,South,16.1,24.2,N/A,,Haze,180,2012-12-31 18:15:00
12:35 PM,79.5,60.8,53,29.96,7.0,South,18.4,26.5,N/A,,Scattered Clouds,180,2012-12-31 18:35:00
12:55 PM,80.4,60.8,51,29.96,7.0,South,17.3,25.3,N/A,,Mostly Cloudy,190,2012-12-31 18:55:00
1:15 PM,80.4,60.8,51,29.95,7.0,South,19.6,26.5,N/A,,Overcast,180,2012-12-31 19:15:00
1:35 PM,80.6,61.0,51,29.93,5.0,SSE,16.1,24.2,N/A,,Haze,160,2012-12-31 19:35:00
1:55 PM,79.9,61.2,53,29.91,7.0,South,15.0,21.9,N/A,,Overcast,170,2012-12-31 19:55:00
2:15 PM,80.1,61.2,52,29.90,7.0,SSE,17.3,21.9,N/A,,Mostly Cloudy,150,2012-12-31 20:15:00
2:35 PM,79.9,61.0,52,29.90,7.0,South,13.8,21.9,N/A,,Scattered Clouds,170,2012-12-31 20:35:00
2:55 PM,79.9,60.8,52,29.89,7.0,South,12.7,-,N/A,,Scattered Clouds,170,2012-12-31 20:55:00
3:15 PM,80.6,60.6,50,29.88,7.0,South,17.3,21.9,N/A,,Clear,170,2012-12-31 21:15:00
3:35 PM,80.2,60.3,50,29.88,7.0,SSE,15.0,21.9,N/A,,Clear,160,2012-12-31 21:35:00
3:55 PM,79.9,60.3,51,29.88,5.0,South,9.2,-,N/A,,Haze,170,2012-12-31 21:55:00
4:15 PM,79.7,61.0,53,29.88,7.0,SE,16.1,-,N/A,,Clear,140,2012-12-31 22:15:00
4:35 PM,79.0,61.7,55,29.88,7.0,SE,10.4,-,N/A,,Clear,140,2012-12-31 22:35:00
4:55 PM,78.8,61.7,56,29.87,5.0,SSE,13.8,-,N/A,,Haze,150,2012-12-31 22:55:00
5:15 PM,78.8,61.9,56,29.87,5.0,SE,13.8,18.4,N/A,,Haze,140,2012-12-31 23:15:00
5:35 PM,78.3,62.4,58,29.87,5.0,SSE,16.1,19.6,N/A,,Haze,150,2012-12-31 23:35:00
5:55 PM,77.0,62.8,61,29.88,7.0,SSE,15.0,20.7,N/A,,Clear,150,2012-12-31 23:55:00
6:15 PM,76.6,63.0,62,29.89,7.0,South,11.5,-,N/A,,Clear,170,2013-01-01 00:15:00
6:35 PM,76.1,63.0,64,29.90,7.0,SSE,10.4,16.1,N/A,,Clear,150,2013-01-01 00:35:00
6:55 PM,75.2,63.1,66,29.90,7.0,SSE,11.5,-,N/A,,Clear,150,2013-01-01 00:55:00
7:15 PM,74.7,63.5,68,29.91,7.0,SSE,9.2,-,N/A,,Clear,160,2013-01-01 01:15:00
7:35 PM,74.5,63.7,69,29.91,7.0,South,8.1,-,N/A,,Clear,170,2013-01-01 01:35:00
7:55 PM,74.3,63.7,69,29.92,10.0,South,8.1,-,N/A,,Clear,170,2013-01-01 01:55:00
8:35 PM,73.0,64.0,73,29.93,10.0,South,5.8,-,N/A,,Clear,180,2013-01-01 02:35:00
8:55 PM,72.7,64.2,75,29.94,7.0,South,4.6,-,N/A,,Clear,190,2013-01-01 02:55:00
9:15 PM,72.7,64.2,75,29.94,7.0,SSE,5.8,-,N/A,,Clear,150,2013-01-01 03:15:00
9:35 PM,72.7,64.4,75,29.94,7.0,SSE,5.8,-,N/A,,Clear,150,2013-01-01 03:35:00
9:55 PM,72.9,64.8,76,29.94,7.0,SSE,9.2,-,N/A,,Clear,160,2013-01-01 03:55:00
10:15 PM,72.9,64.9,76,29.94,7.0,SSE,9.2,-,N/A,,Clear,160,2013-01-01 04:15:00
10:35 PM,72.9,64.9,76,29.94,7.0,South,8.1,-,N/A,,Clear,170,2013-01-01 04:35:00
10:55 PM,72.9,64.9,76,29.94,5.0,South,9.2,-,N/A,,Haze,170,2013-01-01 04:55:00
11:15 PM,73.4,64.9,75,29.93,7.0,South,12.7,17.3,N/A,,Clear,170,2013-01-01 05:15:00
11:35 PM,73.4,64.9,75,29.93,7.0,South,11.5,16.1,N/A,,Scattered Clouds,170,2013-01-01 05:35:00
11:55 PM,73.6,64.9,74,29.93,7.0,South,10.4,17.3,N/A,,Scattered Clouds,170,2013-01-01 05:55:00